Weather in Bjelovar

Croatia     45°54′00″N   16°50′20″E
В апреле 2022 года жителям России запретили посещать сайт meteo.paraplan.net по решению Генеральной прокуратуры. Аудитория сайта уменьшилась в 10 раз. Владельцы сайта не видят смысла в поддержке погодного сервера в таких условиях. Сайт будет закрыт в октябре.
temp.,
°C
wind,
m/s
gust,
m/s
humid.,
%
clouds,
%
prec.,
mm/h
press.,
hPa
HPBL,
m
6 october, thu
thu623:00+11s1271100 0.0 102713
02:00+10sw117591 0.0 102712
05:00+9sw118065 0.0 102710
08:00+11ne117817 0.0 102812
11:00+17n225935 0.0 1029379
14:00+21ne345347 0.0 1029761
17:00+20ne236694 0.0 102883
20:00+15nne2280100 0.0 103012
7 october, fri
fri723:00+13nne228353 0.0 103011
02:00+12nne228580 0.0 103012
05:00+12nne2289100 0.0 102914
08:00+12ne128791 0.0 102846
11:00+18ene2267100 0.0 1027538
14:00+20ese2256100 0.0 1024956
17:00+19ese2268100 0.0 102353
20:00+14ese1177100 0.0 102311
8 october, sat
sat823:00+13s0078100 0.0 102210
02:00+12ssw1185100 0.0 102110
05:00+11sw1190100 0.0 102010
08:00+12sw1185100 0.0 102017
11:00+17wsw1165100 0.0 1020383
14:00+20w1160100 0.0 1019735
17:00+19nnw0069100 0.0 101823
20:00+15n2286100 0.0 102011
9 october, sun
sun923:00+15nne413789 0.0 1023674
02:00+13nne269256 0.0 1024171
05:00+12nne247791 0.0 102580
08:00+11n287899 0.0 1026337
11:00+16nne46505 0.0 1026716
14:00+18nne34400 0.0 10251083
17:00+17ne23530 0.0 1023100
20:00+12ne11580 0.0 102411
10 october, mon
mon1023:00+10ne11620 0.0 102410
02:00+9ene11680 0.0 102410
05:00+8ene11781 0.0 102310
08:00+9ese00815 0.0 102413
11:00+16ssw11575 0.0 1024429
14:00+19sse114959 0.0 1023851
17:00+18ssw11615 0.0 102213
20:00+12nw00755 0.0 102311